| time (UTC) | temp F | wind direction | speed MPH | gust MPH | rain 1hr in | rain 24hr in | rain mn in | humidity % | barometer mb |
| 20260901160645 | 71 | 176 | 1.0 | 4.0 | 0.00 | 0.00 | 0.00 | 95 | 1022.2 |
| 20260901155745 | 71 | 162 | 1.0 | 4.0 | 0.00 | 0.00 | 0.00 | 95 | 1022.3 |
| 20260901154845 | 71 | 176 | 2.0 | 6.0 | 0.00 | 0.00 | 0.00 | 95 | 1022.2 |
| 20260901153945 | 71 | 149 | 2.0 | 7.0 | 0.00 | 0.00 | 0.00 | 95 | 1021.9 |
| 20260901153045 | 70 | 155 | 4.0 | 8.0 | 0.00 | 0.00 | 0.00 | 95 | 1021.9 |
| 20260901152145 | 70 | 138 | 3.0 | 6.0 | 0.00 | 0.00 | 0.00 | 95 | 1021.9 |
| 20260901151244 | 70 | 145 | 3.0 | 6.0 | 0.00 | 0.00 | 0.00 | 95 | 1022.1 |
| 20260901150345 | 70 | 149 | 2.0 | 5.0 | 0.00 | 0.00 | 0.00 | 95 | 1022.2 |
| 20260901144545 | 70 | 118 | 3.0 | 6.0 | 0.00 | 0.00 | 0.00 | 95 | 1022.5 |
| 20260901143645 | 70 | 118 | 2.0 | 4.0 | 0.00 | 0.00 | 0.00 | 95 | 1022.5 |
| 20260901142745 | 70 | 106 | 3.0 | 4.0 | 0.00 | 0.00 | 0.00 | 95 | 1022.5 |
| 20260901141845 | 70 | 107 | 1.0 | 4.0 | 0.00 | 0.00 | 0.00 | 95 | 1022.7 |
| 20260901140945 | 70 | 108 | 3.0 | 4.0 | 0.00 | 0.00 | 0.00 | 95 | 1022.5 |
| 20260901140045 | 70 | 105 | 2.0 | 3.0 | 0.00 | 0.00 | 0.00 | 95 | 1022.5 |
| 20260901135145 | 70 | 136 | 2.0 | 4.0 | 0.00 | 0.00 | 0.00 | 94 | 1022.4 |
| 20260901134245 | 70 | 182 | 2.0 | 5.0 | 0.00 | 0.00 | 0.00 | 94 | 1022.4 |
| 20260901132445 | 70 | 165 | 2.0 | 4.0 | 0.00 | 0.00 | 0.00 | 95 | 1022.2 |
| 20260901130644 | 70 | 167 | 2.0 | 5.0 | 0.00 | 0.00 | 0.00 | 95 | 1022.3 |
| 20260901125744 | 70 | 152 | 2.0 | 4.0 | 0.00 | 0.00 | 0.00 | 95 | 1022.3 |
| 20260901124845 | 70 | 137 | 2.0 | 5.0 | 0.00 | 0.00 | 0.00 | 95 | 1022.4 |
| 20260901123945 | 70 | 131 | 2.0 | 3.0 | 0.00 | 0.00 | 0.00 | 95 | 1022.3 |
| 20260901123044 | 69 | 138 | 0.0 | 2.0 | 0.00 | 0.00 | 0.00 | 95 | 1022.6 |
| 20260901122144 | 69 | 0 | 0.0 | 0.0 | 0.00 | 0.00 | 0.00 | 95 | 1022.6 |
| 20260901120345 | 69 | 169 | 1.0 | 4.0 | 0.00 | 0.00 | 0.00 | 95 | 1022.5 |
| 20260901115444 | 69 | 141 | 3.0 | 5.0 | 0.00 | 0.00 | 0.00 | 95 | 1022.3 |
| 20260901114545 | 69 | 164 | 1.0 | 4.0 | 0.00 | 0.00 | 0.00 | 95 | 1022.4 |
| 20260901113644 | 69 | 182 | 1.0 | 2.0 | 0.00 | 0.00 | 0.00 | 95 | 1022.6 |
| 20260901112745 | 69 | 142 | 1.0 | 4.0 | 0.00 | 0.00 | 0.00 | 95 | 1022.5 |
| 20260901111845 | 69 | 176 | 0.0 | 3.0 | 0.00 | 0.00 | 0.00 | 95 | 1022.5 |
| 20260901110945 | 69 | 155 | 1.0 | 3.0 | 0.00 | 0.00 | 0.00 | 95 | 1022.4 |
| 20260901110045 | 68 | 152 | 2.0 | 5.0 | 0.00 | 0.00 | 0.00 | 95 | 1022.4 |
| 20260901104245 | 68 | 139 | 1.0 | 4.0 | 0.00 | 0.00 | 0.00 | 95 | 1022.3 |
| 20260901103345 | 68 | 133 | 2.0 | 4.0 | 0.00 | 0.00 | 0.00 | 95 | 1022.2 |
| 20260901102444 | 68 | 133 | 2.0 | 3.0 | 0.00 | 0.00 | 0.00 | 95 | 1022.3 |
| 20260901100645 | 68 | 141 | 1.0 | 3.0 | 0.00 | 0.00 | 0.00 | 95 | 1022.4 |
| 20260901095745 | 68 | 125 | 2.0 | 4.0 | 0.00 | 0.00 | 0.00 | 95 | 1022.1 |
| 20260901094844 | 68 | 117 | 2.0 | 5.0 | 0.00 | 0.00 | 0.00 | 95 | 1022.1 |
| 20260901093945 | 68 | 115 | 2.0 | 5.0 | 0.00 | 0.00 | 0.00 | 95 | 1022.3 |
| 20260901092144 | 68 | 109 | 3.0 | 5.0 | 0.00 | 0.00 | 0.00 | 95 | 1022.4 |
| 20260901091245 | 68 | 101 | 2.0 | 4.0 | 0.00 | 0.00 | 0.00 | 95 | 1022.4 |
| 20260901090344 | 68 | 122 | 2.0 | 3.0 | 0.00 | 0.00 | 0.00 | 95 | 1022.4 |
| 20260901082744 | 68 | 132 | 0.0 | 2.0 | 0.00 | 0.00 | 0.00 | 95 | 1022.9 |
| 20260901081845 | 68 | 128 | 0.0 | 2.0 | 0.00 | 0.00 | 0.00 | 95 | 1022.9 |
| 20260901080945 | 68 | 206 | 2.0 | 4.0 | 0.00 | 0.00 | 0.00 | 95 | 1022.9 |
| 20260901080045 | 68 | 154 | 2.0 | 4.0 | 0.00 | 0.00 | 0.00 | 94 | 1022.8 |
| 20260901074245 | 68 | 206 | 1.0 | 3.0 | 0.00 | 0.00 | 0.00 | 94 | 1023.1 |
| 20260901073344 | 68 | 168 | 1.0 | 4.0 | 0.00 | 0.00 | 0.00 | 94 | 1023.0 |
| 20260901072445 | 68 | 130 | 1.0 | 5.0 | 0.00 | 0.00 | 0.00 | 94 | 1023.4 |
| 20260901071546 | 68 | 133 | 2.0 | 6.0 | 0.00 | 0.00 | 0.00 | 94 | 1023.0 |
| 20260901070645 | 69 | 183 | 0.0 | 2.0 | 0.00 | 0.00 | 0.00 | 94 | 1023.1 |
| 20260901065745 | 69 | 152 | 1.0 | 3.0 | 0.00 | 0.00 | 0.00 | 94 | 1023.2 |
| 20260901064844 | 69 | 0 | 0.0 | 0.0 | 0.00 | 0.00 | 0.00 | 94 | 1023.2 |
| 20260901063944 | 69 | 97 | 2.0 | 4.0 | 0.00 | 0.00 | 0.00 | 94 | 1023.1 |
| 20260901063045 | 69 | 134 | 2.0 | 4.0 | 0.00 | 0.00 | 0.00 | 94 | 1023.1 |
| 20260901062145 | 69 | 157 | 2.0 | 5.0 | 0.00 | 0.00 | 0.00 | 94 | 1023.3 |
| 20260901061244 | 69 | 148 | 2.0 | 5.0 | 0.00 | 0.00 | 0.00 | 93 | 1023.4 |
| 20260901060344 | 69 | 160 | 1.0 | 2.0 | 0.00 | 0.00 | 0.00 | 93 | 1023.5 |
| 20260901055444 | 69 | 207 | 1.0 | 4.0 | 0.00 | 0.00 | 0.00 | 93 | 1023.8 |
| 20260901054544 | 70 | 224 | 0.0 | 3.0 | 0.00 | 0.00 | 0.00 | 93 | 1023.8 |
| 20260901053644 | 70 | 0 | 0.0 | 0.0 | 0.00 | 0.00 | 0.00 | 92 | 1023.9 |
| 20260901052744 | 70 | 0 | 0.0 | 0.0 | 0.00 | 0.00 | 0.00 | 92 | 1023.9 |
| 20260901050945 | 71 | 0 | 0.0 | 0.0 | 0.00 | 0.00 | 0.00 | 90 | 1024.0 |
| 20260901050044 | 71 | 0 | 0.0 | 0.0 | 0.00 | 0.00 | 0.00 | 90 | 1023.8 |
| 20260901045145 | 71 | 0 | 0.0 | 0.0 | 0.00 | 0.00 | 0.00 | 90 | 1023.7 |
| 20260901044245 | 71 | 134 | 0.0 | 2.0 | 0.00 | 0.00 | 0.00 | 90 | 1023.8 |
| 20260901043344 | 71 | 146 | 1.0 | 3.0 | 0.00 | 0.00 | 0.00 | 89 | 1023.8 |
| 20260901042445 | 71 | 147 | 1.0 | 3.0 | 0.00 | 0.00 | 0.00 | 89 | 1023.8 |
| 20260901041544 | 71 | 147 | 1.0 | 5.0 | 0.00 | 0.00 | 0.00 | 89 | 1023.8 |
| 20260901040644 | 71 | 159 | 1.0 | 3.0 | 0.00 | 0.00 | 0.00 | 89 | 1023.9 |
| 20260901035745 | 71 | 143 | 1.0 | 3.0 | 0.00 | 0.00 | 0.00 | 89 | 1024.0 |
| 20260901034845 | 71 | 168 | 2.0 | 4.0 | 0.00 | 0.00 | 0.00 | 89 | 1024.1 |
| 20260901033946 | 71 | 140 | 2.0 | 3.0 | 0.00 | 0.00 | 0.00 | 89 | 1024.2 |
| 20260901033044 | 71 | 136 | 1.0 | 3.0 | 0.00 | 0.00 | 0.00 | 88 | 1024.3 |
| 20260901032144 | 71 | 171 | 2.0 | 4.0 | 0.00 | 0.00 | 0.00 | 88 | 1024.3 |
| 20260901031244 | 71 | 193 | 2.0 | 5.0 | 0.00 | 0.00 | 0.00 | 88 | 1024.5 |
| 20260901030345 | 71 | 185 | 2.0 | 5.0 | 0.00 | 0.00 | 0.00 | 88 | 1024.5 |
| 20260901025445 | 71 | 187 | 2.0 | 5.0 | 0.00 | 0.00 | 0.00 | 87 | 1024.5 |
| 20260901024544 | 71 | 163 | 2.0 | 5.0 | 0.00 | 0.00 | 0.00 | 87 | 1024.5 |
| 20260901023644 | 71 | 150 | 2.0 | 5.0 | 0.00 | 0.00 | 0.00 | 87 | 1024.5 |
| 20260901022745 | 71 | 160 | 3.0 | 5.0 | 0.00 | 0.00 | 0.00 | 87 | 1024.6 |
| 20260901020044 | 71 | 150 | 2.0 | 3.0 | 0.00 | 0.00 | 0.00 | 86 | 1024.7 |
| 20260901014244 | 71 | 131 | 2.0 | 5.0 | 0.00 | 0.00 | 0.00 | 85 | 1024.7 |
| 20260901013344 | 71 | 140 | 1.0 | 4.0 | 0.00 | 0.00 | 0.00 | 85 | 1024.8 |
| 20260901012444 | 71 | 145 | 2.0 | 4.0 | 0.00 | 0.00 | 0.00 | 84 | 1024.8 |
| 20260901011545 | 71 | 134 | 2.0 | 4.0 | 0.00 | 0.00 | 0.00 | 84 | 1024.8 |
| 20260901010644 | 71 | 143 | 1.0 | 2.0 | 0.00 | 0.00 | 0.00 | 84 | 1024.8 |
| 20260901005744 | 71 | 136 | 1.0 | 3.0 | 0.00 | 0.00 | 0.00 | 84 | 1024.7 |
| 20260901003945 | 71 | 142 | 2.0 | 5.0 | 0.00 | 0.00 | 0.00 | 83 | 1024.7 |
| 20260901003044 | 71 | 140 | 3.0 | 5.0 | 0.00 | 0.00 | 0.00 | 84 | 1024.6 |
| 20260901002145 | 71 | 133 | 3.0 | 5.0 | 0.00 | 0.00 | 0.00 | 84 | 1024.6 |
| 20260901001244 | 71 | 154 | 3.0 | 6.0 | 0.00 | 0.00 | 0.00 | 84 | 1024.6 |
| 20260831235444 | 71 | 141 | 2.0 | 6.0 | 0.00 | 0.00 | 0.00 | 84 | 1024.6 |
| 20260831234545 | 71 | 138 | 3.0 | 5.0 | 0.00 | 0.00 | 0.00 | 83 | 1024.7 |
| 20260831233645 | 71 | 142 | 3.0 | 6.0 | 0.00 | 0.00 | 0.00 | 83 | 1024.8 |
| 20260831232745 | 71 | 134 | 3.0 | 5.0 | 0.00 | 0.00 | 0.00 | 83 | 1024.9 |
| 20260831231845 | 71 | 137 | 3.0 | 5.0 | 0.00 | 0.00 | 0.00 | 83 | 1025.1 |
| 20260831230944 | 71 | 144 | 2.0 | 4.0 | 0.00 | 0.00 | 0.00 | 82 | 1025.0 |
| 20260831230045 | 71 | 151 | 3.0 | 7.0 | 0.00 | 0.00 | 0.00 | 82 | 1024.9 |
| 20260831223345 | 72 | 157 | 3.0 | 5.0 | 0.00 | 0.00 | 0.00 | 81 | 1024.9 |
| 20260831222444 | 72 | 154 | 3.0 | 6.0 | 0.00 | 0.00 | 0.00 | 81 | 1025.0 |
| 20260831220644 | 72 | 152 | 4.0 | 8.0 | 0.00 | 0.00 | 0.00 | 80 | 1025.1 |
| 20260831215744 | 72 | 166 | 3.0 | 8.0 | 0.00 | 0.00 | 0.00 | 80 | 1025.0 |
| 20260831214844 | 72 | 152 | 4.0 | 6.0 | 0.00 | 0.00 | 0.00 | 80 | 1025.0 |
| 20260831213944 | 72 | 142 | 4.0 | 7.0 | 0.00 | 0.00 | 0.00 | 80 | 1025.0 |
| 20260831213045 | 72 | 155 | 3.0 | 7.0 | 0.00 | 0.00 | 0.00 | 80 | 1025.0 |
| 20260831212144 | 72 | 161 | 3.0 | 6.0 | 0.00 | 0.00 | 0.00 | 80 | 1025.1 |
| 20260831211244 | 72 | 159 | 3.0 | 7.0 | 0.00 | 0.00 | 0.00 | 79 | 1025.0 |
| 20260831210344 | 72 | 169 | 4.0 | 8.0 | 0.00 | 0.00 | 0.00 | 78 | 1025.0 |
| 20260831205444 | 73 | 153 | 4.0 | 8.0 | 0.00 | 0.00 | 0.00 | 77 | 1025.0 |
| 20260831204545 | 73 | 176 | 4.0 | 10.0 | 0.00 | 0.00 | 0.00 | 77 | 1025.0 |
| 20260831203644 | 73 | 160 | 4.0 | 9.0 | 0.00 | 0.00 | 0.00 | 76 | 1025.2 |
| 20260831201845 | 74 | 168 | 4.0 | 7.0 | 0.00 | 0.00 | 0.00 | 77 | 1025.2 |
| 20260831200944 | 74 | 152 | 3.0 | 8.0 | 0.00 | 0.00 | 0.00 | 77 | 1025.2 |
| 20260831200044 | 74 | 157 | 3.0 | 7.0 | 0.00 | 0.00 | 0.00 | 77 | 1025.3 |
| 20260831195144 | 75 | 171 | 2.0 | 6.0 | 0.00 | 0.00 | 0.00 | 76 | 1025.3 |
| 20260831193344 | 75 | 159 | 2.0 | 5.0 | 0.00 | 0.00 | 0.00 | 75 | 1025.3 |
| 20260831192444 | 75 | 158 | 2.0 | 6.0 | 0.00 | 0.00 | 0.00 | 75 | 1025.4 |
| 20260831191544 | 75 | 105 | 2.0 | 5.0 | 0.00 | 0.00 | 0.00 | 73 | 1025.3 |
| 20260831190645 | 75 | 134 | 3.0 | 6.0 | 0.00 | 0.00 | 0.00 | 74 | 1025.4 |
| 20260831185744 | 76 | 147 | 3.0 | 6.0 | 0.00 | 0.00 | 0.00 | 73 | 1025.6 |
| 20260831184844 | 76 | 168 | 1.0 | 5.0 | 0.00 | 0.00 | 0.00 | 72 | 1025.7 |
| 20260831183944 | 76 | 151 | 2.0 | 6.0 | 0.00 | 0.00 | 0.00 | 73 | 1025.8 |
| 20260831183044 | 76 | 151 | 2.0 | 6.0 | 0.00 | 0.00 | 0.00 | 72 | 1026.0 |
| 20260831182145 | 76 | 108 | 2.0 | 5.0 | 0.00 | 0.00 | 0.00 | 71 | 1026.1 |
| 20260831180345 | 76 | 185 | 3.0 | 6.0 | 0.00 | 0.00 | 0.00 | 71 | 1026.1 |
| 20260831175444 | 76 | 170 | 2.0 | 6.0 | 0.00 | 0.00 | 0.00 | 71 | 1025.9 |
| 20260831174544 | 76 | 146 | 1.0 | 7.0 | 0.00 | 0.00 | 0.00 | 73 | 1025.9 |
| 20260831173644 | 76 | 80 | 4.0 | 8.0 | 0.00 | 0.00 | 0.00 | 74 | 1025.8 |
| 20260831172744 | 77 | 116 | 4.0 | 8.0 | 0.00 | 0.00 | 0.00 | 72 | 1025.8 |
| 20260831171844 | 77 | 192 | 2.0 | 6.0 | 0.00 | 0.00 | 0.00 | 72 | 1026.1 |
| 20260831170944 | 76 | 84 | 2.0 | 6.0 | 0.00 | 0.00 | 0.00 | 71 | 1026.1 |
| 20260831165144 | 76 | 99 | 3.0 | 7.0 | 0.00 | 0.00 | 0.00 | 71 | 1026.2 |
| 20260831164244 | 76 | 124 | 2.0 | 6.0 | 0.00 | 0.00 | 0.00 | 69 | 1026.3 |
| 20260831163345 | 76 | 112 | 2.0 | 7.0 | 0.00 | 0.00 | 0.00 | 72 | 1026.3 |
| 20260831162444 | 76 | 135 | 2.0 | 7.0 | 0.00 | 0.00 | 0.00 | 69 | 1026.4 |